This is the latest recevied weather packets stored in our database for station/object HS4AS-1. If no packets are shown the sender has not sent any weather packets the latest 10 day(s).
| Time | Temp. | Humidity | Pressure | Rain* | Wind** | Luminosity | Snow |
|---|---|---|---|---|---|---|---|
| 1778147241 | 35° C | 99% | 960 hPa | - | - | - | - |
| 1778146618 | 35° C | 99% | 960 hPa | - | - | - | - |
| 1778145448 | 35.56° C | 99% | 960 hPa | - | - | - | - |
| 1778144836 | 36.11° C | 99% | 960 hPa | - | - | - | - |
| 1778144213 | 36.67° C | 99% | 960 hPa | - | - | - | - |
| 1778142491 | 37.78° C | 85% | 959 hPa | - | - | - | - |
| 1778141879 | 37.78° C | 87% | 959 hPa | - | - | - | - |
| 1778141268 | 37.78° C | 84% | 959 hPa | - | - | - | - |
| 1778140656 | 37.78° C | 84% | 959 hPa | - | - | - | - |
| 1778140043 | 37.78° C | 76% | 959 hPa | - | - | - | - |
| 1778139432 | 37.78° C | 84% | 960 hPa | - | - | - | - |
| 1778138820 | 37.78° C | 90% | 960 hPa | - | - | - | - |
| 1778138209 | 37.22° C | 85% | 960 hPa | - | - | - | - |
| 1778137597 | 37.22° C | 99% | 960 hPa | - | - | - | - |
| 1778136985 | 37.22° C | 99% | 960 hPa | - | - | - | - |
| 1778136374 | 37.22° C | 90% | 960 hPa | - | - | - | - |
| 1778135762 | 37.22° C | 90% | 961 hPa | - | - | - | - |
| 1778135151 | 37.22° C | 90% | 961 hPa | - | - | - | - |
| 1778134539 | 37.22° C | 99% | 961 hPa | - | - | - | - |
| 1778133928 | 37.22° C | 99% | 962 hPa | - | - | - | - |
| 1778133316 | 36.11° C | 99% | 962 hPa | - | - | - | - |
| 1778132704 | 36.11° C | 99% | 963 hPa | - | - | - | - |
| 1778132093 | 36.67° C | 99% | 963 hPa | - | - | - | - |
| 1778131481 | 37.78° C | 90% | 963 hPa | - | - | - | - |
| 1778130869 | 38.33° C | 73% | 962 hPa | - | - | - | - |
* Rain since midnight (hover to see other rain measurements)
** Current wind speed in m/s (hover to see current wind gust speed)